Regional Weather Roundup
Issued by NWS

Home | Current Version | Previous Version | Graphics & Text | Print | Product List | Glossary On
Versions: 1 2 3 4 5 6 7 8 9 10 11 12 13 14 15 16 17 18 19 20 21 22 23 24 25 26 27 28 29 30 31 32 33 34 35 36 37 38 39 40 41 42 43 44 45 46 47 48 49 50
000
ASUS45 KCYS 272010
RWRWY

WYOMING REGIONAL WEATHER ROUNDUP
NATIONAL WEATHER SERVICE CHEYENNE WY
200 PM MDT FRI MAR 27 2015

NOTE:  "FAIR" INDICATES FEW OR NO CLOUDS BELOW 12,000 FEET
WITH NO SIGNIFICANT WEATHER AND/OR OBSTRUCTIONS TO VISIBILITY.

WYZ001-272100-
YELLOWSTONE NATIONAL PARK

CITY           SKY/WX    TMP DP  RH WIND       PRES   REMARKS
LK YELLOWSTONE   N/A     50  29  44 SW8       30.30F
W YELLOWSTONE  NOT AVBL

$$
WYZ002>013-054>058-071-098>099-272100-
NORTHERN WYOMING

CITY           SKY/WX    TMP DP  RH WIND       PRES   REMARKS
JACKSON        SUNNY     52  36  54 CALM      30.29F
CODY           FAIR      68  28  22 SW13G22   30.09F
GREYBULL       FAIR      67  31  26 VRB5      30.07F
WORLAND        FAIR      67  31  26 CALM      30.08F
SHERIDAN       FAIR      69  31  24 N18G33    30.01F
BUFFALO        FAIR      67  31  26 N21G28    30.06F
GILLETTE       FAIR      65  35  33 NW17G29   30.02F
HULETT         MOCLDY    61  34  36 N15G29    30.03S
NEWCASTLE      FAIR      63  32  31 NW25G35   30.02F

$$
WYZ014>020-022>026-101>103-272100-
CENTRAL WYOMING

CITY           SKY/WX    TMP DP  RH WIND       PRES   REMARKS
BIG PINEY      FAIR      63  26  24 N16G23    30.27F
PINEDALE       FAIR      57  28  33 NW21      30.29F
DUBOIS         FAIR      57  27  30 N18G25    30.24F
LANDER         FAIR      69  26  20 W9        30.13F
RIVERTON       FAIR      65  29  25 VRB6      30.14F
CASPER         FAIR      68  27  21 W20G28    30.11F
DOUGLAS        PTSUNNY   68  30  24 W25G41    30.06F

$$
WYZ021-027>030-104>119-272100-
SOUTHERN WYOMING

CITY           SKY/WX    TMP DP  RH WIND       PRES   REMARKS
EVANSTON       FAIR      61  30  31 SW13      30.32F
KEMMERER       FAIR      59  32  36 W15G26    30.31F
FORT BRIDGER   FAIR      64  28  25 W20G28    30.33F
ROCK SPRINGS   FAIR      64  26  23 W21G31    30.26F
DIXON          FAIR      61  30  30 SW6G22    30.28F
RAWLINS        FAIR      62  24  23 W18G28    30.22F
SARATOGA       FAIR      59  27  29 W20G26    30.24F
LARAMIE        FAIR      58  24  27 NW26G40   30.19F
CHEYENNE       FAIR      62  26  25 NW25G36   30.12F
TORRINGTON     FAIR      70  32  24 NW21G29   30.02F
PINE BLUFFS    FAIR      64  30  27 NW20G25   30.10F

$$



USA.gov is the U.S. government's official web portal to all federal, state and local government web resources and services.